User: anonymous   Login
Location: Saratoga Springs
(43.0831°N, 73.7850°W)
Time: 22:54:20
(UTC-04:00)
Language:

Tiros 1 despin weight - Orbit

View from above orbital plane
View from above orbital plane
View from above satellite
View from above satellite

Ground track
Ground track

The orbit data is extracted from the following two-line orbital elements,

1 00115U 60002D   24112.00646177  .00007628  00000-0  81804-3 0  9993
2 00115  48.1672 349.9765 0031239 328.7333  31.1724 14.88992791400412
Epoch (UTC): 21 April 2024 00:09:18
Eccentricity: 0.0031239
inclination: 48.1672°
perigee height: 579 km
apogee height: 623 km
right ascension of ascending node: 349.9765°
argument of perigee: 328.7333°
revolutions per day: 14.88992791
mean anomaly at epoch: 31.1724°
orbit number at epoch: 40041

The dashed part of the orbit path shows where the satellite is in the earth's shadow,  

DLR